Home   Weather   Iquique   Past weeks

Flag for Chile Past Weather in Iquique, Chile — Yesterday and Last 2 Weeks

Now
75 °F

Sunny.


Feels Like: 77 °F
Forecast: 72 / 80 °F
Wind: 10 mph from South

Location: Iquique / Diego Arac

Current Time: Jan 16, 2017 at 10:10:11 am

Latest Report: Jan 16, 2017 at 9:00 am


Visibility: 10 mi

Pressure: 29.95 "Hg

Humidity: 69%

Dew Point: 64 °F

Location of IquiqueLocation

Past Weather in Iquique — Graph

°F

Iquique Temperature Yesterday

Maximum temperature yesterday: 81 °F (at 4:00 pm)
Minimum temperature yesterday: 73 °F (at 6:00 am)
Average temperature yesterday: 77 °F

High & Low Weather Summary for the Past Weeks

 TemperatureHumidityPressure
High81 °F (Jan 7, 4:00 pm)88% (Jan 8, 2:00 am)30.01 "Hg (Jan 8, 2:00 am)
Low66 °F (Jan 4, 7:00 am)47% (Jan 7, 12:00 am)29.74 "Hg (Jan 4, 6:00 pm)
Average74 °F64%29.90 "Hg
* Reported Jan 1 9:00 am — Jan 16 9:00 am, Iquique, Weather by CustomWeather, © 2017

Note: Actual official high and low records may vary slightly from our data, if they occured in-between our weather recording intervals... More about our weather records

Advertising

Iquique Weather History for the Previous 24 Hours

Scroll right to see more
 ConditionsComfort  
Time TempWeatherWind HumidityBarometerVisibility
9:00 am
Mon, Jan 16
75 °FSunny.10 mph69%29.95 "Hg10 mi
8:00 am73 °FSunny.7 mph78%29.92 "Hg10 mi
7:00 am73 °FClear.6 mph74%29.92 "Hg10 mi
6:00 am73 °FClear.3 mph74%29.89 "Hg10 mi
5:00 am73 °FClear.8 mph78%29.89 "Hg10 mi
4:00 am73 °FClear.6 mph74%29.89 "Hg10 mi
3:00 am73 °FClear.10 mph78%29.89 "Hg10 mi
2:00 am75 °FClear.7 mph74%29.89 "Hg10 mi
1:00 am75 °FClear.9 mph69%29.92 "Hg10 mi
12:00 am75 °FClear.9 mph74%29.92 "Hg10 mi
11:00 pm
Sun, Jan 15
77 °FClear.10 mph65%29.92 "Hg10 mi
10:00 pm77 °FClear.14 mph65%29.89 "Hg10 mi
9:00 pm75 °FClear.15 mph74%29.89 "Hg10 mi
8:00 pm77 °FSunny.14 mph69%29.83 "Hg10 mi
7:00 pm79 °FSunny.14 mph65%29.83 "Hg10 mi
6:00 pm79 °FSunny.14 mph65%29.83 "Hg10 mi
5:00 pm81 °FSunny.15 mph62%29.83 "Hg10 mi
4:00 pm81 °FPassing clouds.15 mph58%29.86 "HgN/A
3:00 pm79 °FSunny.16 mph61%29.86 "Hg10 mi
2:00 pm79 °FSunny.15 mph58%29.86 "Hg10 mi
1:00 pm79 °FSunny.13 mph58%29.89 "Hg10 mi
12:00 pm79 °FSunny.12 mph61%29.89 "Hg10 mi
11:00 am77 °FSunny.8 mph65%29.89 "Hg10 mi
10:00 am79 °FSunny.2 mph61%29.89 "Hg10 mi
Weather by CustomWeather, © 2017

See weather overviewHow to use our weather pages